Weather in Mutsalaul

Russia / Republic of Dagestan     43°16′08″N   46°43′52″E
temp.,
°C
wind,
m/s
gust,
m/s
humid.,
%
clouds,
%
prec.,
mm/h
press.,
hPa
HPBL,
m
21 april, wed
wed2100:00+14wnw4975100 0.0 1010249
03:00+17w91579100 0.0 1011587
06:00+16wnw71283100 0.0 1013628
09:00+16wnw91169100 0.0 1017926
12:00+15wnw81062100 0.0 1017885
15:00+15wnw7964100 0.4 1018874
18:00+12w6986100 2.2 1021419
21:00+11w488472 2.2 1022226
22 april, thu
thu2200:00+10w4688100 0.0 1021131
03:00+11w3587100 0.0 1021163
06:00+12w348499 0.0 1021216
09:00+14wnw446985 0.0 1022540
12:00+17nw555798 0.0 10221306
15:00+16nnw2363100 0.1 10211094
18:00+15nw1168100 0.0 102223
21:00+13nne1272100 0.0 102239
23 april, fri
fri2300:00+12nnw127799 0.0 102047
03:00+12w3580100 0.0 1020238
06:00+11wnw5887100 0.1 1022481
09:00+11wnw5889100 0.5 1023531
12:00+13wnw7107389 0.3 1023953
15:00+15wnw710637 0.3 10221082
18:00+15nw23694 0.0 102280
21:00+11ssw11835 0.0 102210
24 april, sat
sat2400:00+10se228495 0.0 102012
03:00+10ese3384100 0.0 101832
06:00+10w128198 0.0 101841
09:00+16nnw2162100 0.0 1018571
12:00+19ne22495 0.0 10181340
15:00+20ene64475 0.0 10171019
18:00+15e576144 0.0 1018248
21:00+12e126831 0.0 101951
25 april, sun
sun2500:00+11e11765 0.0 101910
03:00+10e118191 0.0 101810
06:00+11ese22765 0.0 101867
09:00+18ene3350100 0.0 1017803
12:00+21e654074 0.0 10141165
15:00+20ene434029 0.0 1012955
18:00+17ne115328 0.0 101318
21:00+13wsw116082 0.0 101311